Regional Weather Roundup
Issued by NWS

Home | Current Version | Previous Version | Graphics & Text | Print | Product List | Glossary On
Versions: 1 2 3 4 5 6 7 8 9 10 11 12 13 14 15 16 17 18 19 20 21 22 23 24 25 26 27 28 29 30 31 32 33 34 35 36 37 38 39 40 41 42 43 44 45 46 47 48 49 50
000
ASUS43 KDTX 200001
RWRMI
MICHIGAN HOURLY REGIONAL WEATHER ROUNDUP
NATIONAL WEATHER SERVICE DETROIT/PONTIAC MI
800 PM EDT THU OCT 19 2017

NOTE: "FAIR" INDICATES FEW OR NO CLOUDS BELOW 12,000 FEET WITH NO
SIGNIFICANT WEATHER AND/OR OBSTRUCTION TO VISIBILITY.

MIZ047>049-052>055-059>063-066>070-074>076-081>083-200100-
SOUTHEAST LOWER MICHIGAN

CITY           SKY/WX    TMP DP  RH WIND       PRES   REMARKS
ADRIAN         CLEAR     57  34  41 NW5       30.18R
6HR MIN TEMP:  57; 6HR MAX TEMP:  71;

ALMA           CLOUDY    53  28  38 W12       30.15R
ANN ARBOR      CLOUDY    46  38  73 CALM      30.15R
BAD AXE        CLEAR     52  30  42 SW3       30.12R
6HR MIN TEMP:  52; 6HR MAX TEMP:  65;

CARO           CLOUDY    52  30  42 SW3       30.12S
DETROIT CITY   CLOUDY    62  28  27 W5        30.14R
6HR MIN TEMP:  62; 6HR MAX TEMP:  70;

DETROIT        CLOUDY    61  31  32 NW6       30.16R
6HR MIN TEMP:  60; 6HR MAX TEMP:  71;

FLINT          CLOUDY    54  32  43 W5        30.15R
6HR MIN TEMP:  54; 6HR MAX TEMP:  68;

GROSSE ILE     CLOUDY    61  33  35 NW3       30.14R
6HR MIN TEMP:  60; 6HR MAX TEMP:  73;

HILLSDALE      CLEAR     54  27  35 CALM      30.17R
HOWELL         CLOUDY    55  30  38 W6        30.16R
6HR MIN TEMP:  55; 6HR MAX TEMP:  68;


CITY           SKY/WX    TMP DP  RH WIND       PRES   REMARKS
JACKSON        CLEAR     56  29  35 W3        30.17R
6HR MIN TEMP:  55; 6HR MAX TEMP:  68;

LAMBERTVILLE   CLOUDY    60  38  45 CALM      30.16R
6HR MIN TEMP:  59; 6HR MAX TEMP:  74;

LANSING        CLEAR     57  29  34 W7        30.17R
6HR MIN TEMP:  57; 6HR MAX TEMP:  68;

LAPEER         FAIR      56  28  33 W5        30.14R
6HR MIN TEMP:  56; 6HR MAX TEMP:  67;

MASON          CLEAR     58  32  38 CALM      30.16S
MONROE         CLOUDY    59  33  37 W3        30.14R
MT. CLEMENS    MOCLDY    60  31  33 W5        30.13R
6HR MIN TEMP:  60; 6HR MAX TEMP:  70;

PONTIAC        CLOUDY    57  31  37 W5        30.14R
6HR MIN TEMP:  57; 6HR MAX TEMP:  68;

PORT HOPE        N/A     57  34  41 VRB3      30.08R
6HR MIN TEMP:  54; 6HR MAX TEMP:  65;

PORT HURON     CLEAR     50  37  62 CALM      30.13R
TRI CITIES     CLOUDY    53  31  42 W7        30.14R
6HR MIN TEMP:  52; 6HR MAX TEMP:  68;

MIDLAND        FAIR      56  28  34 W3        30.13R
6HR MIN TEMP:  55; 6HR MAX TEMP:  69;

TROY           CLOUDY    61  28  29 W3        30.16R
SAGINAW HB     CLOUDY    55  28  35 W8        30.13R
$$
MIZ043>046-050>051-056>058-064>065-071>073-077>080-200100-
SOUTHWEST LOWER MICHIGAN

CITY           SKY/WX    TMP DP  RH WIND       PRES   REMARKS
BATTLE CREEK   CLEAR     53  33  46 CALM      30.18R
6HR MIN TEMP:  53; 6HR MAX TEMP:  67;

BENTON HARBOR  CLEAR     50  41  71 CALM      30.19R
6HR MIN TEMP:  50; 6HR MAX TEMP:  64;

BIG RAPIDS     CLEAR     51  32  49 CALM      30.14S
6HR MIN TEMP:  51; 6HR MAX TEMP:  64;

COLDWATER      CLEAR     49  32  51 CALM      30.18R
6HR MIN TEMP:  49; 6HR MAX TEMP:  69;

FREMONT        FAIR      52  37  56 CALM      30.16R
HOLLAND        CLEAR     50  41  71 CALM      30.18R
6HR MIN TEMP:  50; 6HR MAX TEMP:  65;

GRAND RAPIDS   MOCLDY    54  35  48 W7        30.17R
6HR MIN TEMP:  53; 6HR MAX TEMP:  67;

IONIA          FAIR      54  32  43 W7        30.16R
6HR MIN TEMP:  54; 6HR MAX TEMP:  67;

KALAMAZOO      CLEAR     53  30  41 W3        30.19R
6HR MIN TEMP:  53; 6HR MAX TEMP:  67;

LUDINGTON      PTCLDY    55  42  63 S3        30.13R
6HR MIN TEMP:  55; 6HR MAX TEMP:  61;

MARSHALL       CLEAR     52  29  41 CALM      30.17R
6HR MIN TEMP:  51; 6HR MAX TEMP:  67;

MOUNT PLEASANT CLOUDY    57  30  35 CALM      30.14R
6HR MIN TEMP:  57; 6HR MAX TEMP:  69;

MUSKEGON       PTCLDY    53  42  66 S3        30.17R
6HR MIN TEMP:  53; 6HR MAX TEMP:  63;

SOUTH HAVEN    CLEAR     50  43  78 CALM      30.19R
$$
MIZ016>042-200100-
NORTHERN LOWER MICHIGAN

CITY           SKY/WX    TMP DP  RH WIND       PRES   REMARKS
ALPENA         CLOUDY    55  30  38 W3        30.08R
6HR MIN TEMP:  55; 6HR MAX TEMP:  65;

BEAVER ISLAND  PTCLDY    57  47  69 SW9       30.05F
6HR MIN TEMP:  57; 6HR MAX TEMP:  62;

BELLAIRE       CLEAR     48  41  75 SW3       30.10R
6HR MIN TEMP:  48; 6HR MAX TEMP:  62;

CADILLAC       PTCLDY    52  29  42 SW6       30.13R
CHARLEVOIX     CLOUDY    55  40  55 SW7       30.10S
6HR MIN TEMP:  55; 6HR MAX TEMP:  61;

FRANKFORT      CLEAR     59  46  60 S6        30.11R
GAYLORD        CLOUDY    50  33  52 SW8       30.09R
6HR MIN TEMP:  50; 6HR MAX TEMP:  59;

GRAYLING       CLOUDY    48  31  51 CALM      30.12R
6HR MIN TEMP:  48; 6HR MAX TEMP:  64;

HARBOR SPRINGS CLOUDY    56  40  53 W6        30.07R
HOUGHTON LAKE  CLOUDY    54  37  52 SW3       30.13R
6HR MIN TEMP:  54; 6HR MAX TEMP:  63;

MANISTEE       CLEAR     52  40  63 CALM      30.13R
OSCODA         CLOUDY    53  22  30 W7        30.09R
6HR MIN TEMP:  50; 6HR MAX TEMP:  67;

PELLSTON       CLOUDY    56  40  55 SW5       30.06R
6HR MIN TEMP:  56; 6HR MAX TEMP:  62;

ROGERS CITY    CLEAR     53  32  45 SW8       30.07R
TRAVERSE CITY  MOCLDY    53  36  52 CALM      30.10R
6HR MIN TEMP:  53; 6HR MAX TEMP:  66;

$$
MIZ007>008-015-200100-
EASTERN UPPER MICHIGAN

CITY           SKY/WX    TMP DP  RH WIND       PRES   REMARKS
KINROSS        CLEAR     52  23  32 W5        30.03R
6HR MIN TEMP:  52; 6HR MAX TEMP:  61;

MACKINAC ISLAN CLEAR     58  43  57 SW14G20   30.04R
6HR MIN TEMP:  57; 6HR MAX TEMP:  60;

NEWBERRY       CLEAR     46  31  54 SW6       30.03R
6HR MIN TEMP:  45; 6HR MAX TEMP:  61;

S. S. MARIE    CLEAR     55  30  38 W6        30.01R
6HR MIN TEMP:  55; 6HR MAX TEMP:  60;

MUNISING         N/A     49  37  63 SW5       30.02R
6HR MIN TEMP:  49; 6HR MAX TEMP:  65;

$$
MIZ004>006-011>014-085-200100-
CENTRAL UPPER MICHIGAN

CITY           SKY/WX    TMP DP  RH WIND       PRES   REMARKS
MANISTIQUE     CLEAR     53  44  73 SW6       30.04R
ESCANABA       PTCLDY    53  46  77 S3        30.04S
6HR MIN TEMP:  53; 6HR MAX TEMP:  66;

MENOMINEE      CLEAR     58  35  42 SW5       30.07S
6HR MIN TEMP:  58; 6HR MAX TEMP:  68;

SAWYER-GWINN   CLEAR     55  28  35 S7        30.03R
$$
MIZ001>003-009>011-084-200100-
WESTERN UPPER MICHIGAN

CITY           SKY/WX    TMP DP  RH WIND       PRES   REMARKS
IRON MOUNTAIN  CLOUDY    53  33  46 CALM      30.03R
6HR MIN TEMP:  51; 6HR MAX TEMP:  67;

HOUGHTON       CLOUDY    49  31  49 CALM      29.97R
6HR MIN TEMP:  48; 6HR MAX TEMP:  62;

COPPER HARBOR    N/A     53  31  42 W3        29.96R
6HR MIN TEMP:  53; 6HR MAX TEMP:  61;

IRONWOOD       CLOUDY    62  31  31 S5        29.97S
6HR MIN TEMP:  62; 6HR MAX TEMP:  68;

$$

ABBREVIATIONS USED IN REMARKS
   TC - TEMPERATURE IN CELSIUS
  WCI - WIND CHILL INDEX
   HX - HEAT INDEX
  VSB - VISIBILITY




USA.gov is the U.S. government's official web portal to all federal, state and local government web resources and services.